{"data":{"norad_id":52630,"intl_designator":"2022-052AJ","name":"STARLINK-3989","alt_names":[],"object_type":"PAYLOAD","status":"ACTIVE","operator":null,"country":"US","launch_date":"2022-05-14","launch_site_code":"AFETR","launch_vehicle":null,"mission":null,"orbit_class":"UNKNOWN","rcs_meters":null,"size_class":null,"mass_kg":null,"dimensions":null,"purposes":["comms"],"wikipedia_slug":null,"has_3d_model":false,"image_url":null,"decayed_at":null,"tle_current":{"epoch":"2026-09-20T00:01:06.973824Z","epoch_age_seconds":109604,"freshness":"FRESH","line1":"1 52630U 22052AJ  26263.00077516  .00000339  00000+0  22695-4 0  9994","line2":"2 52630  53.1582 102.1028 0001292  90.5301 269.5849 15.31698318240529","mean_motion":15.31698318,"eccentricity":0.0001292,"inclination_deg":53.1582,"raan_deg":102.1028,"arg_perigee_deg":90.5301,"mean_anomaly_deg":269.5849,"bstar":2.2695e-5,"rev_number":24052,"period_min":94.013291199553,"perigee_km":469.86013362912,"apogee_km":471.6298847403,"semimajor_km":6848.8820091847,"source":"CELESTRAK","updated_at":"2026-09-20T09:00:40.095668Z"}}}